Showing default

PORCUPINE 2, 1577

Orbit data source: Space-Track

PORCUPINE 2, 1577 is a payload satellite owned by NRL (US) in LEO that was launched on Fri, 13 Aug 1965 UTC via a THOR ABLESTAR launch vehicle from the Air Force Western Test Range (AFWTR). Payload-class satellites include a variety of spacecraft equipped with specific instruments for various scientific and technological missions. These include communications satellites like Starlink; space stations such as the ISS; scientific satellites like the Hubble; Earth observation satellites from companies like Planet Labs, Umbra, and HawkEye 360; GPS; miniature CubeSats for education and research; and military/defense satellites.

Loading next visibility...
Identifier
1577, 1965-065J
Orbit
LEO
Country
Flag of USUS
Related business
Manufacturer
NRL
Mission
Spacecraft
Bus & Motor
SURCAL, Unknown motor
Mass
5 kg wet, 5 kg dry
Launch date (UTC)
1965-08-13 (61 years ago)
Launch vehicle
THOR ABLESTAR
Launch site
Air Force Western Test Range (AFWTR)
Object type
Payload
Rocket body
Debris
Shape & HBR
Unknown
Radar Cross Section
Medium (>0.1 m² and <1 m²)

Expand to show TLE details & history
Last TLE update: 6 hours ago

TLE from 6 hours ago
0 PORCUPINE 2
1  1577U 65065J   26128.19017660  .00000121  00000-0  21643-3 0  9994
2  1577  90.0318 211.9689 0069020 215.0119 202.8896 13.36249833957317
Epoch: 2026-05-08T04:33Z
TLE epoch observation values (Epoch: 2026-05-08T04:33:51.258Z)
Latitude
57.68709°
Longitude
-82.57022°
Altitude
1,180.819 km
Speed
7.245 km/s
True Right ascension
14h 07m 40s
True Declination
57° 32' 25"
Sunlit
Object was in daylight at epoch
Visualization orbit readout
Latitude
Unknown
Longitude
Unknown
Altitude
Unknown
Speed
Unknown
Apparent Right ascension
Unknown
Apparent Declination
Unknown
Sunlit
N/A
Visualization observer readout
Local Sidereal Time
18:42:13
Azimuth
Unknown
Elevation
Unknown
Doppler factor
Unknown
Orbital elements
Apogee altitude
1,172.106 km
Perigee altitude
1,068.597 km
Semi-major axis
7,498.488 km
Eccentricity
0.0069
Inclination
90.0318°
RAAN
211.9689°
Arg. of periapsis
215.0119°
True anomaly
202.5844°
Mean anomaly
202.8896°
Eccentric anomaly
202.73676°
Mean motion
3.34259 °/min
Orbital period
107.7 mins
BSTAR
0.00021643
Loading maneuver chart data...
Computing Atmospheric mass density...
Loading historical data...
Loading historical data...
Loading historical data...
Loading historical data...
Loading historical data...
Loading historical data...
Loading historical data...

Documentation

Showing up to 5 results
|